Fulton, NY

5:10 PM EST on December 11, 2019 (GMT -0500)
Oswego County

Weather History for KFZY - May, 2019

Change the Weather History Date:

Wednesday, May 29, 2019

  Actual Average (KSYR) Record (KSYR)
Temperature  
Mean Temperature 57 °F -  
Max Temperature 64 °F 73 °F 93 °F (2012)
Min Temperature 50 °F 49 °F 37 °F (1992)
Degree Days  
Heating Degree Days 8    
Growing Degree Days 7 (Base 50)    
Moisture  
Dew Point 48 °F    
Average Humidity 79    
Maximum Humidity 89    
Minimum Humidity 63    
Precipitation  
Precipitation 0.00 in - - ()
Sea Level Pressure  
Sea Level Pressure 29.75 in    
Wind  
Wind Speed 4 mph (WNW)    
Max Wind Speed 7 mph    
Max Gust Speed -    
Visibility 10 miles    
Events Rain    
Averages and records for this station are not official NWS values.
T = Trace of Precipitation, MM = Missing Value Source: NWS Daily Summary

Daily Weather History Graph

Daily Weather History Graph

Search for Another Location

Airport or City:

Astronomy

May. 29, 2019 Rise Set
Actual Time 5:29 AM EDT 8:36 PM EDT
Civil Twilight 4:55 AM EDT 9:11 PM EDT
Nautical Twilight 4:11 AM EDT 9:55 PM EDT
Astronomical Twilight 3:18 AM EDT 10:48 PM EDT
Moon 3:18 AM EDT (5/29) 3:32 PM EDT (5/29)
Length of Visible Light 16h 15m
Length of Day
15h 06m
Waning Crescent, 23% of the Moon is Illuminated
May 29
Waning Crescent
Jun 3
New
Jun 10
First Quarter
Jun 17
Full
Jun 25
Last Quarter

Hourly Weather History & Observations

Time (EDT) Temp. Dew Point Humidity Pressure Visibility Wind Dir Wind Speed Gust Speed Precip Events Conditions
12:18 AM 50.0 °F 46.9 °F 89% 29.75 in 10.0 mi WNW 6.9 mph - N/A   Overcast
12:38 AM 50.0 °F 46.9 °F 89% 29.75 in 10.0 mi NW 6.9 mph - N/A   Overcast
12:54 AM 51.1 °F 46.9 °F 86% 29.75 in 10.0 mi NW 5.8 mph - N/A   Overcast
1:54 AM 51.1 °F 48.0 °F 89% 29.76 in 10.0 mi NW 6.9 mph - N/A   Overcast
2:16 AM 51.1 °F 48.0 °F 89% 29.76 in 10.0 mi NW 6.9 mph - N/A   Overcast
2:42 AM 51.1 °F 48.0 °F 89% 29.76 in 10.0 mi NW 4.6 mph - N/A   Overcast
2:54 AM 51.1 °F 46.9 °F 86% 29.76 in 10.0 mi NNW 4.6 mph - N/A   Overcast
3:54 AM 51.1 °F 48.0 °F 89% 29.76 in 10.0 mi West 3.5 mph - N/A   Overcast
4:03 AM 51.1 °F 46.9 °F 86% 29.77 in 10.0 mi WNW 4.6 mph - N/A   Overcast
4:54 AM 51.1 °F 46.9 °F 86% 29.77 in 10.0 mi WNW 3.5 mph - N/A   Overcast
5:54 AM 51.1 °F 46.9 °F 86% 29.80 in 10.0 mi West 4.6 mph - N/A   Overcast
6:14 AM 51.1 °F 46.9 °F 86% 29.80 in 10.0 mi WNW 4.6 mph - N/A   Overcast
6:54 AM 51.1 °F 46.9 °F 86% 29.82 in 10.0 mi WNW 4.6 mph - N/A   Overcast
7:54 AM 52.0 °F 48.0 °F 86% 29.80 in 10.0 mi North 3.5 mph - N/A   Overcast
8:54 AM 54.0 °F 46.9 °F 77% 29.78 in 10.0 mi Variable 3.5 mph - N/A   Overcast
9:54 AM 54.0 °F 46.9 °F 77% 29.79 in 10.0 mi SSW 3.5 mph - N/A   Overcast
10:54 AM 55.9 °F 46.9 °F 72% 29.78 in 10.0 mi Calm Calm - N/A   Overcast
11:54 AM 55.9 °F 46.9 °F 72% 29.77 in 10.0 mi ENE 3.5 mph - N/A   Overcast
12:15 PM 55.0 °F 48.0 °F 77% 29.77 in 10.0 mi Calm Calm - 0.00 in Rain Light Rain
12:29 PM 55.9 °F 48.0 °F 75% 29.77 in 10.0 mi Variable 3.5 mph - 0.00 in Rain Light Rain
12:41 PM 55.0 °F 48.9 °F 80% 29.77 in 10.0 mi Variable 4.6 mph - 0.00 in Rain Light Rain
12:54 PM 55.9 °F 48.9 °F 77% 29.77 in 10.0 mi Variable 3.5 mph - 0.00 in   Overcast
1:23 PM 55.9 °F 48.9 °F 77% 29.76 in 10.0 mi ENE 3.5 mph - N/A   Overcast
1:54 PM 57.9 °F 48.9 °F 72% 29.74 in 10.0 mi Variable 3.5 mph - N/A   Overcast
2:43 PM 59.0 °F 50.0 °F 72% 29.71 in 10.0 mi Variable 3.5 mph - N/A   Overcast
2:54 PM 61.0 °F 50.0 °F 67% 29.71 in 10.0 mi Variable 3.5 mph - N/A   Overcast
3:54 PM 62.1 °F 50.0 °F 65% 29.71 in 10.0 mi Calm Calm - N/A   Overcast
4:17 PM 63.0 °F 50.0 °F 63% 29.69 in 10.0 mi Calm Calm - N/A   Partly Cloudy
4:54 PM 62.1 °F 50.0 °F 65% 29.69 in 10.0 mi Variable 3.5 mph - N/A   Mostly Cloudy
5:02 PM 63.0 °F 51.1 °F 65% 29.68 in 10.0 mi Variable 3.5 mph - N/A   Scattered Clouds
5:11 PM 64.0 °F 51.1 °F 63% 29.69 in 10.0 mi Variable 3.5 mph - N/A   Mostly Cloudy
5:19 PM 63.0 °F 50.0 °F 63% 29.69 in 10.0 mi Variable 3.5 mph - N/A   Partly Cloudy
5:34 PM 63.0 °F 52.0 °F 67% 29.69 in 10.0 mi West 5.8 mph - N/A   Mostly Cloudy
5:54 PM 63.0 °F 51.1 °F 65% 29.71 in 10.0 mi WNW 5.8 mph - N/A   Overcast
6:54 PM 60.1 °F 50.0 °F 69% 29.72 in 10.0 mi WNW 5.8 mph - N/A   Overcast
7:54 PM 57.0 °F 48.9 °F 74% 29.72 in 10.0 mi NW 4.6 mph - N/A   Overcast
8:50 PM 53.6 °F 48.2 °F 82% 29.73 in 10.0 mi Calm Calm - N/A   Partly Cloudy
8:54 PM 54.0 °F 48.0 °F 80% 29.73 in 10.0 mi Calm Calm - N/A   Partly Cloudy
9:54 PM 51.1 °F 46.0 °F 83% 29.76 in 10.0 mi West 3.5 mph - N/A   Partly Cloudy
10:06 PM 51.1 °F 46.9 °F 86% 29.75 in 10.0 mi WNW 3.5 mph - N/A   Mostly Cloudy
10:14 PM 51.1 °F 46.9 °F 86% 29.76 in 10.0 mi NW 3.5 mph - N/A   Scattered Clouds
10:43 PM 51.1 °F 46.9 °F 86% 29.76 in 10.0 mi Calm Calm - N/A   Mostly Cloudy
10:54 PM 51.1 °F 46.9 °F 86% 29.77 in 10.0 mi West 4.6 mph - N/A   Mostly Cloudy
11:01 PM 51.1 °F 46.0 °F 83% 29.77 in 10.0 mi West 3.5 mph - N/A   Scattered Clouds
11:54 PM 50.0 °F 46.0 °F 86% 29.77 in 10.0 mi Calm Calm - N/A   Partly Cloudy